Temp
87 87 81 82 82 82 81 82 82 82 81 81 81 82 82 82 82 82 82 82 81 81 82 82 82 82 82 82 82 81 81 80 80 80 80 80 80 81 81 80 82 84 81
91 90 81 82 82 82 82 82 82 81 81 81 81 81 81 81 81 81 81 81 82 80 81 82 82 81 82 81 81 81 81 80 80 80 79 79 79 80 80 80 80 82 81
92 92 86 81 82 82 82 82 81 81 81 81 81 81 81 81 81 81 81 81 81 80 81 81 81 81 81 81 80 79 80 80 80 81 81 83 82 80 81 80 79 80 81
94 93 90 81 81 82 82 81 81 81 80 81 81 81 81 81 81 81 81 81 80 80 81 81 80 80 80 80 80 79 79 80 81 81 83 81 83 81 81 80 80 80 80
95 94 91 81 81 82 81 81 81 81 81 80 81 81 81 81 81 81 81 81 79 80 80 80 80 80 80 79 78 79 79 80 80 82 82 80 78 81 80 80 80 79 79
95 95 82 81 81 81 81 81 81 81 80 80 81 81 81 81 81 81 81 80 79 79 80 80 79 79 79 79 78 78 79 80 81 82 81 80 79 80 80 79 79 79 79
95 95 88 81 81 81 81 81 81 80 80 80 80 80 81 81 81 81 80 80 79 79 80 79 79 79 78 78 78 78 79 80 82 81 81 79 79 79 79 79 79 79 79
93 94 90 81 81 81 81 80 80 80 80 80 80 80 80 81 81 80 80 80 79 79 79 79 79 79 78 78 77 77 77 78 81 80 81 80 77 79 79 78 78 78 79
94 92 90 86 84 80 80 80 80 80 80 80 80 80 80 80 80 80 79 79 79 79 79 79 79 79 78 77 77 76 77 78 80 81 81 80 77 78 78 78 78 77 77
91 91 90 87 87 86 85 79 79 79 80 80 79 79 79 79 79 79 79 79 79 79 79 78 79 79 78 77 76 76 77 78 80 78 78 78 77 78 78 78 77 77 77
87 88 88 85 84 83 84 83 79 79 79 79 79 78 79 85 83 81 81 78 78 79 78 78 78 78 77 76 76 76 76 86 82 78 78 75 77 78 78 77 77 77 77
84 86 89 89 86 84 86 83 83 83 83 82 83 83 86 86 82 85 81 77 77 77 77 77 77 77 77 81 80 76 83 86 83 78 77 76 77 78 78 77 77 76 76
86 85 87 87 87 83 83 81 80 79 79 81 83 82 84 84 80 87 84 82 81 77 77 76 77 80 82 82 82 85 86 87 85 79 76 76 77 78 77 76 76 76 76
88 86 87 86 86 87 84 85 84 80 79 79 79 81 82 82 83 84 78 74 78 80 79 77 78 80 80 84 86 86 86 86 85 79 76 75 76 77 76 76 76 75 75
90 86 87 87 87 87 86 87 87 86 86 87 83 82 80 77 78 79 78 81 79 79 77 75 77 77 80 83 83 85 86 85 81 78 76 74 75 76 76 76 75 76 75
91 89 87 87 87 88 87 87 86 86 87 87 87 86 84 81 79 79 78 78 79 78 74 75 76 74 81 82 80 80 84 84 79 76 76 76 73 74 76 76 75 76 75
91 91 88 87 87 86 86 86 83 82 82 84 85 85 85 84 82 82 78 78 79 78 76 75 76 74 80 79 74 71 77 80 78 76 75 76 72 72 74 75 75 75 75
92 90 88 87 86 85 85 84 83 82 80 80 82 78 78 81 79 81 81 78 77 76 73 72 73 72 73 73 71 68 73 78 77 77 73 75 73 75 72 73 74 74 74
91 89 86 86 85 84 84 81 77 80 81 81 83 79 78 79 79 75 77 76 73 68 69 69 68 69 69 68 64 62 63 69 71 73 73 73 73 73 73 71 72 73 73
88 88 86 84 84 84 82 81 75 77 77 79 76 74 76 80 79 77 73 75 74 68 65 65 65 65 64 64 62 60 60 62 65 67 71 72 71 71 71 71 71 71 72
85 84 83 81 83 81 80 80 74 73 74 76 74 73 77 77 78 76 73 72 72 68 65 65 63 61 60 63 60 58 58 61 63 63 66 69 69 71 71 70 72 70 71
83 81 81 81 81 80 80 80 81 79 78 78 77 73 77 77 73 75 71 71 70 68 67 64 62 59 59 62 58 57 53 57 60 61 63 65 68 70 71 71 71 72 70
81 80 80 80 80 79 78 78 76 77 75 73 73 71 76 77 74 73 74 70 69 68 65 62 62 59 57 59 60 58 54 53 56 59 62 63 64 68 70 73 72 71 68
80 79 79 79 78 79 77 75 73 72 71 74 73 74 76 78 76 70 70 70 68 66 65 62 62 61 60 58 59 59 60 60 53 52 59 63 64 66 70 71 71 74 75
78 76 77 76 76 76 74 74 73 72 75 76 75 74 74 74 75 71 69 70 69 67 67 66 64 62 61 59 59 56 56 58 61 57 53 58 62 65 70 72 71 70 71
74 74 74 74 73 74 73 73 72 72 72 72 72 71 71 67 67 68 70 69 70 69 65 66 65 62 61 61 59 57 56 56 58 58 60 60 60 64 68 69 69 67 67
MSLP
1008.25 1009.16 1010.07 1010.46 1010.77 1010.99 1011.35 1011.42 1011.65 1011.80 1011.97 1012.04 1012.17 1012.23 1012.26 1012.35 1012.48 1012.57 1012.58 1012.64 1012.80 1012.78 1012.72 1012.79 1012.84 1012.86 1012.84 1012.78 1012.60 1012.62 1012.48 1012.43 1012.19 1012.13 1012.02 1011.92 1011.65 1011.37 1011.16 1010.94 1010.50 1010.47 1010.43
1007.96 1008.92 1010.11 1010.42 1010.80 1011.15 1011.37 1011.45 1011.74 1011.93 1012.07 1012.26 1012.31 1012.37 1012.43 1012.55 1012.74 1012.83 1012.82 1012.92 1013.00 1013.16 1013.02 1013.08 1013.12 1013.14 1013.17 1013.18 1013.06 1013.00 1012.89 1012.79 1012.61 1012.54 1012.33 1012.21 1012.16 1011.87 1011.80 1011.58 1011.40 1011.11 1010.85
1007.87 1008.65 1010.04 1010.46 1010.79 1011.16 1011.39 1011.63 1011.85 1012.03 1012.18 1012.34 1012.42 1012.53 1012.69 1012.69 1012.92 1013.00 1013.05 1013.15 1013.26 1013.42 1013.34 1013.37 1013.47 1013.53 1013.52 1013.52 1013.51 1013.47 1013.35 1013.12 1012.92 1012.45 1012.41 1012.36 1012.51 1012.45 1012.15 1012.08 1011.95 1011.75 1011.43
1007.79 1008.56 1009.59 1010.55 1010.82 1011.09 1011.40 1011.70 1011.96 1012.19 1012.34 1012.37 1012.48 1012.58 1012.76 1012.84 1012.98 1013.06 1013.16 1013.30 1013.43 1013.63 1013.69 1013.72 1013.74 1013.82 1013.93 1013.92 1013.92 1013.85 1013.70 1013.40 1012.95 1012.87 1012.75 1012.97 1012.75 1012.91 1012.71 1012.52 1012.53 1012.31 1012.06
1007.83 1008.39 1009.19 1010.54 1010.97 1011.14 1011.47 1011.65 1012.07 1012.26 1012.45 1012.51 1012.57 1012.67 1012.77 1012.90 1013.03 1013.15 1013.19 1013.42 1013.69 1013.83 1013.94 1014.02 1014.07 1014.11 1014.20 1014.31 1014.32 1014.22 1013.93 1013.71 1013.35 1013.32 1013.41 1013.64 1013.65 1013.51 1013.45 1013.17 1013.05 1013.02 1012.81
1007.91 1008.26 1009.80 1010.54 1010.98 1011.24 1011.48 1011.84 1012.09 1012.40 1012.48 1012.53 1012.72 1012.72 1012.94 1012.95 1013.10 1013.16 1013.36 1013.55 1013.87 1014.01 1014.07 1014.30 1014.45 1014.41 1014.49 1014.60 1014.64 1014.57 1014.29 1014.11 1013.79 1013.90 1014.00 1014.25 1014.21 1013.98 1013.88 1013.89 1013.71 1013.61 1013.43
1007.72 1008.13 1009.66 1010.51 1010.91 1011.20 1011.52 1011.80 1012.09 1012.43 1012.62 1012.71 1012.75 1012.81 1013.05 1013.06 1013.19 1013.24 1013.57 1013.80 1013.98 1014.11 1014.32 1014.49 1014.63 1014.71 1014.87 1014.92 1014.92 1014.84 1014.51 1014.38 1014.24 1014.37 1014.51 1014.66 1014.65 1014.50 1014.43 1014.36 1014.22 1014.12 1014.09
1007.71 1008.18 1009.24 1010.55 1010.98 1011.19 1011.57 1011.89 1012.12 1012.40 1012.69 1012.88 1012.87 1012.89 1012.99 1013.09 1013.27 1013.54 1013.72 1013.83 1014.10 1014.18 1014.36 1014.62 1014.75 1014.86 1015.11 1015.30 1015.22 1015.20 1014.86 1014.77 1014.69 1014.84 1014.79 1015.08 1015.25 1015.01 1015.03 1015.00 1014.83 1014.78 1014.69
1007.78 1008.50 1009.14 1010.20 1010.84 1011.31 1011.52 1011.83 1012.20 1012.33 1012.63 1012.95 1012.93 1012.99 1013.12 1013.22 1013.43 1013.66 1013.89 1014.06 1014.20 1014.45 1014.54 1014.77 1014.95 1015.08 1015.30 1015.55 1015.58 1015.50 1015.17 1014.86 1015.05 1015.35 1015.37 1015.53 1015.71 1015.58 1015.65 1015.59 1015.45 1015.50 1015.48
1008.25 1008.66 1009.06 1009.73 1010.36 1010.86 1011.40 1011.87 1012.17 1012.36 1012.62 1012.85 1012.96 1013.12 1013.24 1013.36 1013.63 1013.77 1013.93 1014.15 1014.30 1014.56 1014.75 1014.91 1015.08 1015.26 1015.57 1015.82 1015.83 1015.72 1015.41 1014.93 1015.36 1015.79 1015.95 1016.34 1016.13 1016.03 1016.18 1016.25 1016.15 1016.10 1016.07
1008.57 1008.85 1009.28 1009.97 1010.24 1010.55 1010.94 1011.42 1012.12 1012.38 1012.59 1012.79 1012.94 1013.19 1013.35 1012.90 1013.19 1013.71 1013.74 1014.06 1014.37 1014.63 1014.89 1015.07 1015.25 1015.50 1015.86 1016.07 1016.12 1015.91 1015.66 1014.88 1015.31 1016.14 1016.62 1016.87 1016.63 1016.65 1016.64 1016.75 1016.74 1016.80 1016.71
1008.47 1008.74 1008.80 1009.29 1010.17 1010.53 1010.75 1011.24 1011.62 1011.85 1012.20 1012.42 1012.45 1012.68 1012.76 1012.27 1012.63 1012.85 1013.38 1014.04 1014.51 1014.74 1015.00 1015.21 1015.35 1015.66 1015.86 1015.77 1016.06 1016.00 1015.39 1015.07 1015.31 1016.41 1017.10 1017.16 1017.04 1017.22 1017.20 1017.16 1017.16 1017.38 1017.50
1008.05 1008.60 1008.80 1009.31 1009.75 1010.56 1010.92 1011.37 1011.69 1012.01 1012.10 1012.19 1012.25 1012.56 1012.52 1012.34 1012.70 1012.70 1013.02 1013.71 1014.25 1014.81 1015.01 1015.42 1015.57 1015.44 1015.33 1015.17 1015.56 1015.10 1015.02 1015.03 1015.35 1016.62 1017.45 1017.48 1017.45 1017.54 1017.69 1017.73 1017.88 1017.82 1018.11
1007.28 1008.17 1008.64 1009.15 1009.56 1009.92 1010.53 1010.79 1011.02 1011.50 1012.00 1012.14 1012.29 1012.48 1012.56 1012.49 1012.56 1012.74 1013.18 1013.54 1013.72 1014.31 1014.65 1015.06 1015.14 1015.16 1015.08 1014.92 1015.03 1014.99 1015.07 1015.25 1015.54 1017.03 1017.69 1017.93 1017.90 1017.94 1018.10 1018.20 1018.41 1018.63 1018.63
1006.48 1007.48 1008.24 1008.89 1009.32 1009.64 1010.18 1010.17 1010.27 1010.47 1010.87 1011.08 1011.81 1012.27 1012.54 1012.90 1013.18 1013.20 1013.31 1013.33 1013.86 1014.16 1014.53 1014.98 1015.25 1015.27 1015.05 1015.17 1015.11 1015.04 1015.10 1015.35 1016.30 1017.41 1018.07 1018.17 1018.32 1018.34 1018.37 1018.59 1018.90 1018.98 1019.18
1006.23 1006.92 1007.93 1008.51 1009.10 1009.41 1009.66 1010.04 1010.35 1010.58 1010.64 1010.94 1011.13 1011.49 1012.15 1012.60 1013.00 1013.23 1013.53 1013.58 1013.71 1014.12 1014.49 1014.92 1015.13 1015.47 1015.05 1015.27 1015.59 1015.41 1015.27 1015.58 1017.04 1017.73 1018.08 1018.42 1018.62 1018.67 1018.75 1018.98 1019.27 1019.35 1019.63
1005.80 1006.52 1007.47 1008.07 1008.75 1009.36 1009.71 1010.04 1010.76 1010.98 1011.28 1011.25 1011.38 1011.62 1011.79 1012.15 1012.56 1012.70 1013.23 1013.41 1013.62 1013.86 1014.54 1014.82 1014.98 1015.26 1015.12 1015.79 1016.44 1016.34 1015.93 1016.02 1017.14 1017.82 1018.21 1018.55 1018.97 1019.03 1019.28 1019.43 1019.64 1019.78 1019.93
1005.33 1006.04 1007.33 1007.99 1008.63 1009.30 1009.74 1010.15 1010.68 1010.94 1011.42 1011.66 1011.79 1012.46 1012.68 1012.43 1012.87 1012.68 1013.00 1013.37 1013.81 1014.12 1014.60 1015.07 1015.44 1015.69 1016.14 1016.71 1017.14 1017.48 1017.05 1016.55 1017.17 1017.59 1018.38 1018.78 1019.00 1019.11 1019.79 1019.94 1020.02 1020.23 1020.35
1005.14 1005.87 1007.07 1007.87 1008.40 1009.03 1009.62 1010.43 1011.20 1011.07 1011.29 1011.37 1011.33 1012.06 1012.53 1012.58 1012.74 1013.31 1013.38 1013.49 1014.10 1014.68 1014.99 1015.34 1015.71 1016.09 1016.70 1017.42 1017.74 1018.26 1018.20 1017.60 1017.74 1017.87 1018.60 1019.13 1019.25 1019.32 1019.93 1020.34 1020.50 1020.65 1020.77
1005.45 1006.07 1006.91 1007.78 1008.32 1008.86 1009.52 1010.19 1011.21 1011.40 1011.53 1011.62 1012.04 1012.48 1012.45 1012.22 1012.56 1013.01 1013.71 1013.64 1014.10 1014.89 1015.26 1015.66 1016.02 1016.62 1017.20 1017.74 1018.11 1018.73 1019.25 1019.13 1018.70 1018.80 1019.00 1019.41 1019.43 1019.75 1020.21 1020.55 1020.92 1021.02 1021.17
1005.47 1006.16 1006.92 1007.60 1008.03 1008.82 1009.32 1009.68 1010.86 1011.28 1011.49 1011.71 1012.19 1012.43 1012.17 1012.36 1012.50 1012.98 1013.60 1013.87 1014.12 1014.77 1015.14 1015.61 1016.32 1016.91 1017.63 1018.06 1018.51 1019.56 1019.73 1019.91 1019.27 1019.67 1019.47 1019.79 1019.85 1019.95 1020.23 1020.48 1020.98 1021.29 1021.41
1005.19 1006.12 1006.85 1007.37 1007.97 1008.71 1009.15 1009.50 1009.79 1010.27 1010.85 1011.19 1011.49 1011.97 1011.97 1012.19 1012.83 1012.94 1013.52 1013.80 1014.26 1014.64 1015.12 1015.72 1016.42 1017.02 1017.82 1018.04 1018.43 1019.17 1019.84 1020.27 1020.17 1020.30 1020.27 1020.24 1019.81 1019.88 1020.16 1020.55 1020.72 1021.03 1021.20
1004.85 1005.81 1006.65 1007.31 1007.94 1008.58 1009.22 1009.73 1010.39 1010.59 1010.89 1011.24 1011.49 1011.97 1011.52 1011.64 1012.40 1012.84 1012.92 1013.72 1014.07 1014.56 1015.05 1015.64 1016.14 1016.96 1017.36 1018.08 1018.24 1018.17 1019.26 1019.60 1020.34 1020.52 1020.54 1020.36 1020.03 1019.99 1019.84 1019.95 1020.26 1020.91 1021.31
1004.90 1005.80 1006.65 1007.26 1007.89 1008.51 1009.22 1009.67 1010.05 1010.22 1010.45 1010.58 1010.98 1011.30 1011.17 1011.29 1011.84 1012.88 1013.26 1013.46 1013.92 1014.42 1014.91 1015.29 1015.82 1016.17 1016.62 1017.79 1018.37 1018.38 1018.46 1018.52 1019.23 1020.23 1020.51 1020.15 1020.03 1019.90 1019.70 1019.87 1020.31 1020.48 1020.71
1005.53 1006.26 1006.89 1007.55 1008.12 1008.73 1009.29 1009.61 1009.78 1010.01 1010.09 1010.24 1010.58 1011.01 1011.26 1011.59 1011.83 1012.65 1013.19 1013.19 1013.61 1014.06 1014.56 1015.04 1015.67 1016.18 1016.57 1017.30 1017.64 1018.40 1018.59 1018.49 1018.92 1019.41 1019.82 1019.96 1020.05 1019.87 1019.72 1020.10 1020.52 1020.81 1021.15
1006.43 1006.66 1007.24 1007.80 1008.30 1008.91 1009.32 1009.68 1009.86 1010.01 1010.22 1010.41 1010.89 1011.29 1011.52 1012.23 1012.48 1012.82 1012.83 1012.88 1013.33 1013.94 1014.48 1014.90 1015.35 1016.04 1016.49 1016.95 1017.38 1018.07 1018.41 1018.48 1018.55 1018.92 1018.97 1019.43 1019.52 1019.83 1020.12 1020.46 1020.75 1021.20 1021.50
Wind_Speed
11 16 15 15 14 13 11 10 8 7 8 9 7 6 6 7 7 7 8 8 8 8 11 11 12 11 11 12 13 13 14 12 14 16 18 16 17 19 21 22 19 19 22
14 17 15 16 15 14 12 11 9 8 7 7 6 6 5 6 6 7 6 6 7 8 10 11 11 11 11 12 13 13 12 10 9 8 14 14 15 18 21 19 20 19 22
14 16 16 13 16 14 13 11 10 8 7 7 6 5 4 5 5 6 6 5 7 8 11 12 12 11 11 12 12 12 10 9 10 13 12 10 15 18 21 20 20 21 23
14 15 15 13 14 14 14 12 10 9 7 7 6 5 4 4 6 6 6 6 8 9 10 11 11 11 12 11 11 11 8 7 7 11 8 11 12 17 20 21 23 23 23
13 13 14 15 12 11 16 13 11 9 8 7 7 6 4 5 7 7 8 8 9 10 11 11 11 11 11 11 11 10 5 6 4 13 13 11 9 16 21 22 21 22 22
12 12 20 15 13 11 12 13 12 9 8 8 6 6 4 5 7 6 8 10 10 10 11 10 10 11 10 10 10 7 7 10 13 11 12 12 12 17 19 20 20 21 23
11 12 15 15 14 12 12 14 12 10 8 8 6 5 6 5 7 7 8 8 10 12 10 10 10 10 9 9 9 6 7 11 11 9 10 10 13 18 19 20 21 22 23
9 10 14 13 13 12 12 13 12 10 9 8 5 6 6 5 8 7 8 9 10 12 12 11 10 10 9 7 7 5 8 11 10 8 9 10 13 19 20 20 21 21 22
9 8 12 13 12 10 10 10 12 12 10 9 6 5 6 5 8 7 7 8 10 10 11 11 10 9 9 7 6 5 6 7 11 7 8 8 14 17 20 21 22 22 23
8 8 9 10 12 12 10 9 10 10 9 9 8 7 7 6 6 7 7 7 9 9 10 10 10 10 8 6 6 3 3 7 13 7 7 7 14 19 19 19 20 21 23
7 8 9 8 7 5 6 10 9 9 9 8 8 7 8 8 10 11 9 10 8 10 10 10 11 11 9 7 4 4 7 1 11 8 7 11 16 18 19 19 20 21 22
11 10 9 10 8 9 8 7 9 8 9 9 9 10 9 6 3 6 9 10 8 9 9 10 12 12 11 7 5 7 5 3 11 9 7 12 15 16 17 19 20 19 20
10 8 9 10 11 9 6 4 4 3 4 6 9 7 7 3 4 7 5 6 6 7 5 7 9 7 9 4 6 4 4 4 8 7 8 10 13 16 17 19 19 20 20
13 13 11 9 8 8 5 6 7 6 5 4 5 7 6 4 5 3 2 3 5 6 8 7 6 6 4 6 7 5 5 4 7 7 7 11 11 16 17 20 20 19 20
11 9 10 10 9 9 9 7 5 5 6 7 7 6 5 3 4 4 3 5 5 5 5 5 8 5 6 5 2 4 6 6 14 6 5 10 12 16 18 19 18 18 19
12 14 11 12 10 9 7 8 4 4 3 5 4 6 9 5 4 5 4 6 5 4 4 6 6 5 6 6 2 4 5 10 12 6 5 7 13 15 17 18 17 17 18
12 11 10 10 10 8 7 5 4 3 5 5 4 3 5 6 5 7 5 6 6 5 6 6 7 7 6 3 5 7 5 9 11 7 7 7 7 15 15 15 17 17 17
15 14 11 9 11 10 8 6 3 5 4 4 7 3 6 4 4 6 5 4 2 3 3 5 6 2 5 5 2 3 3 6 11 8 7 7 5 9 10 14 16 16 17
12 12 12 12 11 10 9 6 5 5 6 5 4 5 7 7 7 5 6 4 4 3 4 5 3 6 6 5 5 6 8 6 4 5 8 7 9 8 7 12 13 14 15
12 12 12 10 11 10 7 8 4 4 5 4 3 4 6 5 6 6 4 5 5 5 4 3 6 4 5 5 6 7 4 4 5 4 7 6 7 9 7 8 6 8 13
13 13 14 13 12 8 7 8 7 7 6 7 6 8 7 7 5 7 5 5 6 7 6 6 3 9 4 6 7 6 4 3 6 4 4 3 4 8 7 6 5 4 5
16 14 13 12 11 8 6 5 5 5 7 6 5 6 10 10 7 8 7 6 7 6 9 8 8 5 2 7 5 3 4 3 3 3 1 4 6 5 7 9 8 9 6
16 15 13 11 10 9 7 4 3 4 3 3 5 7 8 9 8 8 7 6 7 7 6 8 9 6 5 4 8 3 4 3 4 0 4 4 7 6 6 8 6 9 9
13 12 11 10 9 7 8 7 8 6 7 6 7 7 6 8 8 5 7 7 7 6 9 9 9 9 9 9 6 2 1 3 5 4 3 3 5 5 4 2 5 4 4
11 11 10 9 7 6 7 6 6 7 4 3 1 4 7 5 7 8 8 8 7 5 7 10 10 8 9 8 7 2 1 2 3 5 5 4 4 4 2 3 1 3 2
10 11 9 9 8 7 6 6 6 5 5 4 5 4 2 2 1 6 8 5 6 6 8 9 9 9 9 7 5 4 3 3 6 4 5 9 8 6 5 4 4 3 4
Wind_Direction
151 145 164 162 158 153 149 138 121 112 101 102 108 106 98 96 89 110 108 100 92 115 102 95 85 72 64 61 67 63 62 59 66 75 71 54 48 48 45 37 48 55 50
156 149 165 167 159 159 156 148 141 123 127 115 107 105 101 101 103 100 112 103 98 107 101 102 93 78 67 62 61 64 61 44 44 94 98 76 55 53 51 53 45 49 50
161 148 169 168 161 165 161 151 148 146 130 124 123 115 118 124 118 120 125 112 115 117 108 98 91 85 75 68 63 63 54 29 10 63 51 76 65 55 56 52 52 51 50
158 147 170 169 168 171 166 154 151 155 157 152 142 144 142 118 141 141 133 122 126 120 111 102 100 86 71 69 68 69 50 16 22 75 71 49 65 59 59 60 56 50 52
156 153 152 163 175 174 159 157 160 162 164 161 166 170 161 139 153 154 140 130 132 126 115 110 103 95 86 76 70 68 51 359 315 68 63 63 58 67 59 52 58 55 53
156 160 134 158 186 171 169 167 166 169 172 180 179 176 177 143 166 160 147 140 137 130 124 116 107 100 92 87 73 50 11 3 53 64 68 72 72 68 69 63 62 60 54
162 151 149 162 174 174 179 173 171 170 175 178 171 179 183 169 168 163 159 147 141 136 133 126 116 108 96 89 79 51 1 32 59 57 72 66 70 70 67 64 63 63 59
154 158 146 164 178 182 188 186 174 173 179 179 177 199 160 177 161 166 169 159 149 143 144 139 129 121 105 88 77 44 348 360 82 59 68 68 72 73 71 68 63 60 62
150 163 152 174 186 196 195 184 188 180 180 187 180 170 171 170 163 167 174 169 157 152 152 147 137 129 111 100 85 55 346 340 80 59 65 72 69 73 71 72 72 69 65
155 167 173 176 181 191 191 184 193 183 181 188 186 190 178 165 176 178 171 181 168 160 165 151 143 125 127 113 102 112 251 280 92 73 62 77 81 79 76 71 71 68 67
171 186 167 181 200 193 205 178 190 191 183 188 186 200 176 205 173 163 198 158 178 171 167 158 146 131 134 124 131 216 259 76 106 80 79 82 83 81 81 79 74 72 70
187 200 194 190 190 197 214 182 201 185 194 202 197 181 221 203 164 195 151 158 189 185 176 166 152 147 180 154 170 239 244 150 101 100 88 87 89 89 87 84 82 78 76
198 198 210 186 190 194 207 182 196 204 211 209 208 207 243 209 170 213 160 174 189 199 176 176 162 185 206 188 166 204 167 120 103 95 96 104 102 99 92 89 87 88 81
192 190 190 209 181 195 186 206 195 187 201 217 215 200 220 230 229 225 234 246 138 192 195 184 203 212 221 199 183 180 157 146 100 97 101 94 104 106 102 95 89 87 87
202 174 186 193 206 197 199 213 219 202 193 209 182 214 212 212 225 225 250 278 189 202 190 197 207 218 218 190 229 179 149 147 94 105 116 121 119 111 102 100 98 96 91
215 172 187 192 198 203 201 211 246 234 233 247 223 203 197 214 216 228 220 239 225 223 185 196 207 208 193 178 163 287 161 114 107 117 149 127 124 116 110 106 105 101 96
210 209 190 179 178 209 201 194 197 214 253 235 271 251 263 221 235 218 235 228 240 207 202 195 207 211 149 127 5 342 356 116 130 152 141 133 125 111 108 110 106 102 103
213 188 180 183 187 189 198 175 206 213 219 222 214 173 248 244 231 268 238 239 277 270 177 162 164 179 141 154 174 1 343 137 127 168 122 136 136 118 112 119 110 109 106
212 182 187 188 193 191 201 158 204 242 221 219 254 178 217 211 208 224 262 190 142 87 165 164 153 151 156 142 85 49 354 73 60 98 124 141 128 112 115 110 118 115 114
197 200 189 188 197 187 190 170 204 238 238 243 242 237 254 218 212 191 218 215 187 147 124 122 137 135 135 133 90 63 57 12 69 62 114 120 122 123 126 118 121 123 120
192 196 187 186 183 175 197 195 199 221 227 227 201 245 201 250 232 215 197 214 193 160 159 146 149 144 121 138 111 83 38 357 74 73 93 106 152 141 141 134 138 125 121
190 189 190 184 183 183 204 222 229 214 220 232 224 217 233 214 192 194 210 212 197 189 175 149 153 128 105 171 143 121 134 69 42 29 319 214 203 163 144 170 180 162 152
192 181 184 179 185 185 193 198 211 240 233 219 234 233 220 214 189 237 200 220 205 193 182 160 157 155 144 186 172 136 138 168 132 161 228 239 234 171 179 213 127 175 136
190 164 177 174 179 190 177 201 205 212 220 216 204 217 207 213 201 201 222 219 209 190 174 164 163 163 150 181 181 58 358 136 159 166 232 232 230 230 202 168 146 187 163
167 163 163 165 173 167 182 205 207 221 226 223 181 202 213 202 205 191 218 214 220 195 192 173 174 169 166 183 176 135 141 137 185 156 164 175 216 223 185 168 103 110 153
165 157 155 157 158 166 179 188 209 223 224 217 202 208 160 195 174 213 216 204 189 199 174 180 174 172 172 172 167 143 149 178 185 160 172 191 175 191 185 183 165 179 147